Location: Boursonne
(49.2024°N, 3.0468°E)
Time: 08:18:13
(UTC+00:00)

USA 306 - Pass Details

Date: 03 March 2021
Orbit: 564 x 577 km, 54.0° (Epoch: 10 April)

Event Time Altitude Azimuth Distance (km) Brightness Sun altitude
Rises 18:18:25 0° 268° (W) 2,783 9.0 -8.0°
Reaches altitude 10° 18:20:44 10° 274° (W) 1,883 7.3 -8.4°
Maximum altitude 18:24:54 47° 350° (N) 760 3.6 -9.1°
Enters shadow 18:28:59 10° 65° (ENE) 1,856 5.0 -9.7°
